Starlink 32953

operational
NORAD ID: 63561 Int'l Des: 2025-075 Owner: SPXS Country: US Constellation: starlink
LEOCIRCULAR

关于 Starlink 32953

正在加载描述...

实时位置

正在加载3D地球...

即将过境

高度历史

Altitude vs Time

uPlot chart will show altitude changes over time

两行轨道根数

1 63561U 25075P 25258.18121270 .00039452 00000-0 14337-2 0 9997
2 63561 43.0117 181.9702 0002053 246.4575 113.6061 15.27622135 25087
Epoch: Sep 15, 2025 • Age: 8 hours

当前状态

高度 486.8 km
速度 7.63 km/s
星下点 40.61°N, 63.74°E
发射日期 Apr 13, 2025
运行时间 0.4 years
类型 internet

技术详情

分类 Payload
质量 730.00 kg
干质量 700.00 kg
总质量 730.00 kg
长度 0.30 m
直径 4.10 m
跨度 29.00 m
形状 Box + pan
制造商 SPXS
平台类型 Starlink V2M
阶段状态 In Orbit
所有者/国家 SPXS/US

大型星座

Loading constellations...